Skip Page Navigation
NASA JPL Caltech
NASA Logo - Jet Propulsion Laboratory + View the NASA Portal
+ Center for Near-Earth Object Studies
JPL Home Earth Solar System Stars & Galaxies Technology
JPL Solar System Dynamics
BODIES ORBITS EPHEMERIDES TOOLS PHYSICAL DATA DISCOVERY FAQ SITE MAP
IMPORTANT: The SSD Announcement email list is now available. Major changes are coming in the near future, including possible hostname and/or URL changes. To be notified of such changes, subscribe to this email list.

Please visit this page for more details.


JPL Small-Body Database Browser
Search: [ help ]  
39136 (2000 WC61)
Classification: Main-belt Asteroid          SPK-ID: 2039136
Ephemeris | Orbit Diagram | Orbital Elements | Mission Design | Physical Parameters | Discovery Circumstances | Close-Approach Data ]

[ show orbit diagram ]
Orbital Elements at Epoch 2459000.5 (2020-May-31.0) TDB
Reference: JPL 25 (heliocentric ecliptic J2000)
 Element Value Uncertainty (1-sigma)   Units 
e .1277537571821794 4.9131e-08  
a 2.724513127793785 1.8217e-08 au
q 2.376446339225958 1.4116e-07 au
i 4.506472400054493 4.9417e-06 deg
node 120.1231632059104 6.0582e-05 deg
peri 260.1252133849846 6.363e-05 deg
M 172.4912026337656 2.2018e-05 deg
tp 2458213.461036004789
(2018-Apr-04.96103600)
9.6322e-05 TDB
period 1642.599870092229
4.50
1.6474e-05
4.51e-08
d
yr
n .2191647561616978 2.1981e-09 deg/d
Q 3.072579916361612 2.0544e-08 au
  Orbit Determination Parameters
   # obs. used (total)      898  
   data-arc span      9903 days (27.11 yr)  
   first obs. used      1993-03-18  
   last obs. used      2020-04-28  
   planetary ephem.      DE431  
   SB-pert. ephem.      SB431-N16  
   condition code      0  
   norm. resid. RMS      .55916  
   source      ORB  
   producer      Otto Matic  
   solution date      2020-May-20 08:40:29  

Additional Information
 Earth MOID = 1.38389 au 
 Jupiter MOID = 2.39524 au 
 T_jup = 3.341 
[ hide covariance matrix ]
Orbital Elements at Epoch 2457107.5 (2015-Mar-26.0) TDB
Reference: JPL 25 (heliocentric ecliptic J2000)
 Element Value Uncertainty (1-sigma)   Units 
e .1255536478011831 4.8783e-08  
q 2.385758314670657 1.3989e-07 au
tp 2456570.133784319267
(2013-Oct-04.63378432)
9.1917e-05 TDB
node 120.1614009182497 6.0507e-05 deg
peri 260.4490702819367 6.3701e-05 deg
i 4.50707274307752 4.9423e-06 deg
  Orbit Determination Parameters
   # obs. used (total)      898  
   data-arc span      9903 days (27.11 yr)  
   first obs. used      1993-03-18  
   last obs. used      2020-04-28  
   planetary ephem.      DE431  
   SB-pert. ephem.      SB431-N16  
   condition code      0  
   norm. resid. RMS      .55916  
   source      ORB  
   producer      Otto Matic  
   solution date      2020-May-20 08:40:29  

Additional Information
 Jupiter MOID = 2.39524 au 
 T_jup = 3.341 
Orbit Covariance (6×6)
  e q tp node peri i
e 2.3798011891404E-15 -6.787355460687885E-15 -2.100724591372916E-12 -4.056396255732892E-15 -4.936227807880094E-13 -1.585706074011245E-16
q -6.787355460687885E-15 1.956884599080906E-14 6.197996189610203E-12 1.134958506976099E-14 1.463264226994436E-12 6.522833184030836E-16
tp -2.100724591372916E-12 6.197996189610203E-12 8.448791749738158E-9 -4.025636272194624E-12 1.858486046852E-9 -3.848385865065929E-13
node -4.056396255732892E-15 1.134958506976099E-14 -4.025636272194624E-12 3.661091591507188E-9 -3.650302302932996E-9 1.254873563079408E-10
peri -4.936227807880094E-13 1.463264226994436E-12 1.858486046852E-9 -3.650302302932996E-9 4.057758349693646E-9 -1.251741800553869E-10
i -1.585706074011245E-16 6.522833184030836E-16 -3.848385865065929E-13 1.254873563079408E-10 -1.251741800553869E-10 2.442586379796867E-11

Ephemeris | Orbit Diagram | Orbital Elements | Mission Design | Physical Parameters | Discovery Circumstances | Close-Approach Data ]

Physical Parameter Table
Parameter Symbol Value Units Sigma Reference Notes
absolute magnitude H 15.0   n/a MPO426176  
diameter diameter 5.797 km 0.137 urn:nasa:pds:neowise_diameters_albedos::2.0[mainbelt] (http://adsabs.harvard.edu/abs/2011ApJ...741...68M)  
geometric albedo albedo 0.063   0.010 urn:nasa:pds:neowise_diameters_albedos::2.0[mainbelt] (http://adsabs.harvard.edu/abs/2011ApJ...741...68M)  

39136 (2000 WC61)          Discovered 2000-Nov-21 by LINEAR at Socorro
Reference: 20020328/Numbers.arcLast Updated: 2004-04-19

[ show close-approach data ]
Alternate Designations
 2000 WC61 = 1993 FA81 
Ephemeris | Orbit Diagram | Orbital Elements | Mission Design | Physical Parameters | Discovery Circumstances | Close-Approach Data ]
ABOUT SSD CREDITS/AWARDS PRIVACY/COPYRIGHT GLOSSARY LINKS
FirstGov 2020-Jun-01 19:55 UT
(server date/time)  
NASA Home Page
Site Manager:   Ryan S. Park
Webmaster  Alan B. Chamberlin